{"data":{"norad_id":41918,"epoch":"2026-05-25T03:05:42.316800Z","epoch_age_seconds":53998,"freshness":"FRESH","line1":"1 41918U 17003B   26145.12896200  .00000043  00000+0  81330-5 0  9996","line2":"2 41918  86.3949  98.0950 0002590  85.6032 274.5459 14.34217843489920","mean_motion":14.34217843,"eccentricity":0.000259,"inclination_deg":86.3949,"raan_deg":98.095,"arg_perigee_deg":85.6032,"mean_anomaly_deg":274.5459,"bstar":8.133e-6,"rev_number":48992,"period_min":100.40315751392,"perigee_km":775.81349181838,"apogee_km":779.5201982101,"semimajor_km":7155.8038450142,"source":"CELESTRAK","updated_at":"2026-05-25T13:38:14.762597Z"}}